This is the latest recevied weather packets stored in our database for station/object NO3U. If no packets are shown the sender has not sent any weather packets the latest 10 day(s).
| Time | Temp. | Humidity | Pressure | Rain* | Wind** | Luminosity | Snow |
|---|---|---|---|---|---|---|---|
| 1777567529 | 7.78° C | 82% | 1014.4 hPa | 0 mm | - | 101 W/m² | - |
| 1777567227 | 7.78° C | 83% | 1014.2 hPa | 0 mm | - | 107 W/m² | - |
| 1777566925 | 8.33° C | 80% | 1014.3 hPa | 0 mm | - | 151 W/m² | - |
| 1777566622 | 8.33° C | 83% | 1014.1 hPa | 0 mm | - | 327 W/m² | - |
| 1777566320 | 7.78° C | 82% | 1014.2 hPa | 0 mm | - | 372 W/m² | - |
| 1777566017 | 7.78° C | 85% | 1014 hPa | 0 mm | - | 241 W/m² | - |
| 1777565713 | 7.22° C | 86% | 1014.2 hPa | 0 mm | - | 116 W/m² | - |
| 1777565410 | 7.22° C | 86% | 1014.1 hPa | 0 mm | - | 97 W/m² | - |
| 1777565105 | 7.22° C | 85% | 1014.4 hPa | 0 mm | - | 55 W/m² | - |
| 1777564801 | 7.22° C | 86% | 1014.4 hPa | 0 mm | - | 102 W/m² | - |
| 1777564496 | 7.22° C | 87% | 1014.4 hPa | 0 mm | - | 127 W/m² | - |
| 1777564192 | 7.22° C | 88% | 1014.2 hPa | 0 mm | - | 151 W/m² | - |
| 1777563889 | 7.22° C | 88% | 1014.1 hPa | 0 mm | - | 120 W/m² | - |
| 1777563585 | 7.22° C | 88% | 1014.1 hPa | 0 mm | - | 80 W/m² | - |
| 1777563285 | 7.22° C | 89% | 1014.1 hPa | 0 mm | - | 90 W/m² | - |
| 1777562981 | 7.22° C | 89% | 1013.9 hPa | 0 mm | - | 100 W/m² | - |
| 1777562677 | 7.22° C | 89% | 1013.9 hPa | 0 mm | - | 74 W/m² | - |
| 1777562372 | 7.22° C | 88% | 1013.8 hPa | 0 mm | - | 94 W/m² | - |
| 1777562068 | 7.22° C | 89% | 1013.9 hPa | 0 mm | - | 158 W/m² | - |
| 1777561765 | 7.22° C | 91% | 1013.7 hPa | 0 mm | - | 124 W/m² | - |
| 1777561461 | 7.22° C | 92% | 1013.8 hPa | 0 mm | - | 107 W/m² | - |
| 1777561156 | 6.67° C | 91% | 1013.6 hPa | 0 mm | - | 164 W/m² | - |
| 1777560851 | 6.67° C | 93% | 1013.5 hPa | 0 mm | - | 173 W/m² | - |
| 1777560549 | 6.67° C | 92% | 1013.5 hPa | 0 mm | - | 100 W/m² | - |
| 1777560246 | 6.67° C | 92% | 1013.6 hPa | 0 mm | - | 96 W/m² | - |
* Rain latest hour (hover to see other rain measurements)
** Current wind speed in m/s (hover to see current wind gust speed)